Dewpoint
28 39 36 42 46 45 42 40 36 43 52 52 51 50 53 57 57 56 55 54 54 55 57 59 57 56 56 58 60 62 63 66 66 66 67 66 63 66 68 68 72 72 72 72
28 32 37 43 44 44 41 37 33 44 52 52 50 50 51 55 58 57 57 57 56 56 56 60 61 58 57 58 60 63 65 68 69 68 72 68 69 66 68 68 72 71 71 73
25 27 28 32 28 34 36 29 27 31 50 52 52 49 49 52 55 57 58 58 55 58 55 58 60 61 59 59 61 63 67 68 69 71 70 70 70 74 68 68 68 70 72 72
24 26 24 23 25 27 27 23 24 38 48 42 50 39 44 50 55 55 56 57 56 57 56 55 57 60 61 61 61 63 66 68 68 72 70 71 71 71 63 65 67 69 72 73
17 18 21 23 25 25 26 31 35 42 41 41 46 39 44 47 46 53 56 55 57 55 56 55 55 57 60 61 62 63 66 68 68 70 72 69 68 65 65 67 71 72 74 74
22 25 23 21 22 20 35 37 41 42 37 31 37 37 33 37 44 49 53 56 56 57 56 55 57 58 59 60 62 63 66 69 70 70 72 73 71 70 67 67 75 68 67 70
20 20 22 23 26 30 35 30 26 28 30 25 35 32 33 36 47 51 52 55 57 57 57 56 57 60 60 60 62 63 68 70 70 70 71 72 73 73 71 69 65 68 66 66
15 15 18 20 21 25 28 24 21 19 16 18 36 28 34 43 51 53 55 56 58 58 59 59 59 60 61 62 63 64 67 70 70 70 71 73 73 71 67 69 67 65 65 67
19 17 19 22 20 22 25 25 20 17 17 18 19 30 31 44 48 52 52 56 57 58 59 59 59 59 61 62 64 66 67 70 70 70 72 73 73 73 69 71 71 67 70 68
23 24 24 23 22 22 22 23 18 17 22 22 19 27 29 40 45 50 48 49 53 57 59 60 60 61 61 61 64 66 68 70 70 69 70 71 71 73 72 72 73 71 72 71
23 23 29 32 31 25 22 19 21 17 19 18 18 24 34 36 44 48 47 48 51 53 55 59 61 62 62 62 64 66 67 68 69 69 70 71 70 71 72 70 72 71 70 71
25 23 26 28 35 36 32 29 29 24 26 26 26 23 44 48 49 50 49 51 56 58 59 61 62 62 63 64 66 67 68 67 68 69 70 70 71 71 70 71 70 72 71 71
28 25 26 29 31 35 32 32 30 28 26 30 28 28 45 48 49 50 51 55 57 59 60 61 64 64 64 64 69 67 67 68 68 69 69 69 70 71 71 71 72 71 73 73
38 26 29 24 28 28 30 31 32 29 27 27 27 32 35 38 42 48 54 57 58 59 61 63 64 65 66 66 69 70 70 70 71 71 70 70 71 71 70 71 73 72 73 73
29 29 29 27 24 25 25 23 25 27 26 27 27 27 30 34 39 46 53 57 57 59 62 63 63 65 66 67 68 69 71 71 71 72 71 71 72 73 73 72 73 72 73 73
31 31 32 29 28 28 26 25 25 24 24 25 27 28 32 42 45 50 53 57 57 61 62 63 65 66 66 66 68 68 70 71 71 71 72 73 73 73 74 74 75 74 74 73
34 32 34 28 32 30 30 29 26 25 24 26 27 31 41 44 45 50 54 57 58 60 61 63 65 65 66 68 69 69 70 72 71 70 71 72 73 72 73 73 73 73 73 71
36 36 32 26 36 27 26 31 29 25 26 27 37 41 43 48 49 54 58 58 59 60 63 64 65 66 67 67 68 70 71 70 71 70 70 71 70 70 71 71 72 71 72 73
34 35 29 27 24 25 24 26 30 30 30 34 40 40 43 49 53 53 58 60 60 63 64 65 65 66 67 68 69 69 68 67 68 70 70 70 70 70 70 70 70 70 70 70
33 38 29 28 25 23 28 35 40 41 32 38 44 44 46 52 47 54 59 60 62 63 64 64 65 66 66 67 68 68 67 67 66 67 68 68 69 68 68 69 69 68 68 66
32 33 29 27 27 26 36 41 42 33 41 48 47 46 48 52 56 61 61 62 63 63 63 63 64 65 64 65 65 64 64 64 66 67 67 68 69 69 68 68 66 64 63 61
33 32 28 30 31 29 39 43 38 47 48 48 49 50 52 58 60 61 61 61 62 61 62 63 63 64 64 66 64 64 64 65 65 64 64 63 66 66 64 62 61 60 59 58
31 33 31 34 32 46 43 45 47 48 47 50 54 55 56 59 59 61 61 62 62 62 62 63 63 63 65 65 65 63 64 65 64 63 61 61 62 62 62 61 60 60 59 59
38 41 32 40 39 41 44 48 48 50 50 52 54 57 58 59 60 60 60 59 60 62 62 63 63 63 63 64 66 66 64 63 62 60 60 61 62 62 62 62 61 60 59 59
37 42 39 38 44 44 43 46 48 51 52 52 56 57 58 60 59 58 58 59 60 62 62 63 62 62 62 63 64 64 63 62 61 60 59 59 59 58 55 53 56 59 55 52
41 39 36 29 43 41 44 46 50 52 52 53 54 56 59 58 57 56 57 60 61 62 62 62 62 63 63 63 62 62 62 61 61 60 59 58 57 56 57 57 54 47 46 45
Lifted_Index
1 0 -1 -2 -1 -1 -1 -1 -0 -1 -2 -3 -2 -2 -2 -2 -2 -2 -2 -2 -2 -2 -2 -2 -1 0 1 2 2 2 1 0 -0 -1 -2 -2 -2 -2 -3 -4 -4 -5 -5 -5
2 1 0 -0 -0 -1 -1 -0 0 -1 -2 -3 -3 -2 -2 -3 -3 -3 -2 -2 -2 -2 -2 -2 -2 -1 0 1 1 1 1 -0 -1 -2 -3 -3 -3 -3 -3 -4 -4 -4 -5 -5
3 3 3 2 2 1 0 1 1 -0 -2 -3 -3 -3 -3 -3 -3 -3 -3 -2 -2 -1 -2 -2 -2 -2 -1 0 0 0 -0 -1 -2 -3 -3 -3 -3 -3 -3 -3 -4 -4 -4 -5
4 4 4 4 3 2 1 2 1 -0 -2 -3 -3 -3 -3 -3 -3 -3 -3 -3 -3 -2 -2 -2 -2 -2 -2 -1 -1 -1 -1 -1 -2 -3 -3 -3 -3 -2 -2 -2 -3 -4 -4 -5
4 4 4 4 2 2 1 1 -0 -2 -2 -3 -2 -2 -3 -3 -3 -3 -4 -3 -3 -3 -2 -2 -2 -2 -2 -2 -2 -1 -1 -1 -2 -3 -3 -3 -3 -2 -2 -3 -3 -4 -4 -5
4 4 4 3 2 1 0 -1 -1 -2 -2 -2 -2 -2 -2 -2 -3 -4 -4 -4 -3 -3 -3 -2 -2 -2 -2 -2 -2 -2 -2 -2 -2 -3 -4 -4 -3 -3 -3 -3 -3 -3 -3 -4
4 4 3 3 2 1 -0 -1 -1 -1 -1 -1 -1 -1 -1 -2 -3 -4 -4 -4 -4 -4 -3 -3 -2 -2 -3 -3 -2 -3 -3 -3 -3 -3 -4 -4 -4 -4 -3 -2 -2 -2 -3 -3
2 2 3 3 2 1 0 -0 -1 -1 -1 -1 -1 -1 -1 -2 -3 -4 -4 -4 -4 -4 -4 -3 -3 -3 -3 -3 -3 -3 -3 -4 -4 -4 -4 -4 -4 -4 -3 -3 -3 -3 -3 -3
1 2 2 3 2 2 1 1 0 -0 -0 -0 -0 -0 -0 -1 -2 -3 -4 -4 -4 -4 -4 -4 -3 -3 -3 -3 -3 -3 -4 -4 -4 -4 -4 -4 -4 -4 -3 -3 -3 -3 -3 -3
1 1 1 2 2 2 2 1 1 0 -0 -0 -0 -0 -0 -1 -2 -3 -3 -3 -4 -4 -4 -4 -4 -3 -3 -3 -3 -3 -4 -4 -4 -4 -4 -4 -4 -4 -4 -4 -4 -4 -4 -4
1 1 0 0 0 1 1 1 1 0 -0 -0 -0 -0 -1 -1 -2 -2 -2 -2 -3 -4 -4 -4 -4 -4 -3 -3 -3 -3 -4 -4 -4 -4 -4 -4 -4 -5 -5 -5 -4 -4 -4 -3
1 0 -1 -1 -0 -0 0 0 0 -0 -0 -0 -0 -1 -2 -2 -3 -3 -2 -3 -4 -4 -4 -5 -5 -4 -4 -4 -3 -3 -4 -4 -4 -4 -4 -5 -5 -5 -5 -5 -4 -4 -4 -4
0 -0 -1 -1 -0 -0 0 0 0 -0 -0 -1 -1 -1 -2 -3 -3 -3 -3 -4 -4 -4 -5 -5 -5 -5 -5 -4 -4 -4 -4 -4 -4 -4 -4 -4 -5 -5 -5 -5 -5 -4 -4 -4
1 -0 -1 -1 0 0 1 1 1 1 0 -0 -0 -1 -1 -1 -1 -2 -4 -4 -4 -5 -5 -5 -5 -5 -5 -4 -4 -4 -4 -4 -4 -4 -4 -4 -4 -5 -5 -5 -5 -5 -5 -5
1 -0 -1 -0 1 1 1 1 2 2 2 1 1 1 1 1 -0 -2 -3 -4 -5 -5 -5 -5 -5 -5 -5 -5 -4 -4 -4 -4 -3 -3 -4 -4 -4 -5 -5 -5 -5 -5 -5 -5
0 -0 -1 -0 0 1 1 1 2 2 3 3 2 2 2 1 0 -1 -3 -4 -4 -5 -5 -5 -5 -4 -5 -5 -4 -4 -4 -4 -3 -3 -4 -4 -5 -5 -5 -5 -5 -5 -5 -5
-0 -1 -1 -1 -1 0 1 1 2 3 3 3 2 2 1 0 -0 -1 -3 -4 -4 -5 -5 -5 -4 -4 -4 -4 -4 -4 -4 -4 -3 -3 -3 -4 -4 -4 -4 -5 -5 -5 -4 -4
-1 -1 -1 -1 -1 0 1 1 2 2 2 2 2 1 0 -1 -1 -2 -3 -4 -4 -5 -5 -4 -4 -4 -4 -4 -3 -3 -3 -3 -2 -2 -3 -3 -3 -3 -3 -4 -4 -4 -4 -3
-1 -1 -1 -1 -0 0 1 1 1 2 2 1 0 -0 -1 -2 -2 -3 -4 -4 -4 -4 -4 -4 -4 -3 -3 -3 -3 -2 -2 -1 -1 -2 -2 -2 -2 -2 -2 -2 -2 -2 -2 -2
-0 -1 -1 -0 0 0 0 0 0 1 1 0 -0 -1 -2 -3 -3 -4 -4 -4 -4 -3 -3 -3 -3 -2 -2 -2 -2 -2 -1 -1 -1 -0 -1 -1 -1 -1 -1 -1 -1 -1 -1 -1
-0 -0 -0 -0 -0 0 -0 -0 -0 -0 -0 -1 -1 -1 -2 -3 -4 -4 -4 -4 -3 -2 -2 -2 -2 -1 -1 -1 -1 -1 -1 -0 0 1 1 0 0 0 0 -0 0 0 0 0
-1 -1 -1 -1 -1 -0 -0 -1 -1 -1 -1 -2 -2 -2 -3 -4 -4 -4 -4 -3 -3 -2 -2 -1 -1 -1 -1 -1 0 1 1 1 1 2 1 1 1 1 1 1 1 1 1 1
-1 -1 -1 -1 -1 -1 -1 -1 -2 -2 -2 -2 -2 -3 -4 -4 -4 -4 -3 -3 -2 -2 -2 -1 -0 -0 -1 -0 1 1 1 1 1 2 2 2 1 1 1 1 1 1 1 1
-1 -1 -1 -1 -1 -1 -1 -1 -2 -2 -2 -2 -3 -4 -4 -4 -4 -4 -3 -2 -1 -1 -1 -1 -0 0 -0 0 0 1 1 0 0 1 1 1 1 2 1 1 2 2 2 2
-1 -1 -1 -1 -1 -1 -1 -1 -2 -2 -2 -2 -3 -3 -4 -4 -4 -3 -2 -1 -1 -1 -1 -1 -0 0 0 -0 -0 -0 -0 -0 -0 -0 0 0 1 1 1 1 2 2 3 3
-1 -1 -1 -1 -1 -1 -0 -1 -2 -2 -2 -2 -3 -3 -3 -3 -3 -2 -1 -1 -1 -1 -1 -0 -0 -0 -0 -0 -1 -1 -1 -1 -0 -0 -0 0 0 1 1 1 2 2 3 4